Salinas, CA

5:38 PM PDT on August 27, 2016 (GMT -0700)
Salinas Municipal

Weather History for KSNS - May, 2013

Change the Weather History Date:

Friday, May 24, 2013

  Actual Average Record
Temperature  
Mean Temperature 54 °F 60 °F  
Max Temperature 62 °F 69 °F 81 °F (1986)
Min Temperature 45 °F 51 °F 39 °F (1980)
Degree Days  
Heating Degree Days 11 5  
Month to date heating degree days 111 148  
Since 1 July heating degree days 2359 2537  
Cooling Degree Days 0 0  
Month to date cooling degree days 9 0  
Year to date cooling degree days 10 7  
Growing Degree Days 2 (Base 50)    
Moisture  
Dew Point 43 °F    
Average Humidity 71    
Maximum Humidity 86    
Minimum Humidity 55    
Precipitation  
Precipitation 0.00 in 0.00 in 1.69 in (1931)
Month to date precipitation T 0.29  
Year to date precipitation 2.28 8.57  
Since 1 July precipitation 8.92  
Sea Level Pressure  
Sea Level Pressure 30.05 in    
Wind  
Wind Speed 10 mph (WSW)    
Max Wind Speed 20 mph    
Max Gust Speed 29 mph    
Visibility 9 miles    
Events      
T = Trace of Precipitation, MM = Missing Value Source: NWS Daily Summary

Daily Weather History Graph

Daily Weather History Graph

Search for Another Location

Airport or City:

Trip Planner

Search our weather history database for the weather conditions in past years. The results will help you decide how hot, cold, wet, or windy it might be!

Date:

Astronomy

May. 24, 2013 Rise Set
Actual Time 5:52 AM PDT 8:14 PM PDT
Civil Twilight 5:23 AM PDT 8:43 PM PDT
Nautical Twilight 4:46 AM PDT 9:20 PM PDT
Astronomical Twilight 4:06 AM PDT 10:00 PM PDT
Moon 8:03 PM PDT (5/24) 5:28 AM PDT (5/24)
Length of Visible Light 15h 20m
Length of Day
14h 21m
Full, 100% of the Moon is Illuminated
May 24
Full
May 24
Full
May 31
Last Quarter
Jun 8
New
Jun 16
First Quarter

Hourly Weather History & Observations

Time (PDT) Temp. Windchill Dew Point Humidity Pressure Visibility Wind Dir Wind Speed Gust Speed Precip Events Conditions
12:53 AM 50.0 °F - 44.1 °F 80% 30.04 in 9.0 mi NW 5.8 mph - N/A   Clear
1:53 AM 48.9 °F - 44.1 °F 83% 30.03 in 9.0 mi WNW 3.5 mph - N/A   Clear
2:53 AM 48.0 °F - 43.0 °F 83% 30.03 in 8.0 mi Calm Calm - N/A   Clear
3:49 AM 44.6 °F - 39.2 °F 81% 30.00 in 10.0 mi Calm Calm - N/A   Scattered Clouds
3:53 AM 46.0 °F - 39.0 °F 76% 30.03 in 10.0 mi Calm Calm - N/A   Scattered Clouds
4:00 AM 46.4 °F - 39.2 °F 76% 30.00 in 10.0 mi Calm Calm - N/A   Mostly Cloudy
4:53 AM 46.9 °F - 39.9 °F 77% 30.03 in 9.0 mi Calm Calm - N/A   Mostly Cloudy
5:03 AM 46.4 °F - 41.0 °F 81% 30.00 in 9.0 mi Calm Calm - N/A   Scattered Clouds
5:17 AM 46.4 °F 44.3 °F 41.0 °F 81% 30.01 in 8.0 mi WSW 4.6 mph - N/A   Mostly Cloudy
5:53 AM 48.0 °F - 45.0 °F 89% 30.05 in 7.0 mi SW 9.2 mph - N/A   Overcast
6:53 AM 48.9 °F - 44.1 °F 83% 30.06 in 8.0 mi WSW 6.9 mph - N/A   Overcast
7:28 AM 50.0 °F - 44.6 °F 82% 30.04 in 7.0 mi WSW 4.6 mph - N/A   Overcast
7:53 AM 50.0 °F - 44.1 °F 80% 30.06 in 8.0 mi WNW 3.5 mph - N/A   Overcast
8:24 AM 51.8 °F - 44.6 °F 76% 30.03 in 8.0 mi Variable 3.5 mph - N/A   Partly Cloudy
8:53 AM 54.0 °F - 45.0 °F 72% 30.06 in 8.0 mi Variable 3.5 mph - N/A   Clear
9:53 AM 59.0 °F - 45.0 °F 60% 30.06 in 9.0 mi Variable 5.8 mph - N/A   Clear
10:53 AM 59.0 °F - 45.0 °F 60% 30.06 in 9.0 mi West 11.5 mph - N/A   Clear
11:53 AM 61.0 °F - 44.1 °F 54% 30.06 in 10.0 mi West 10.4 mph - N/A   Clear
12:53 PM 60.1 °F - 45.0 °F 57% 30.06 in 10.0 mi West 13.8 mph - N/A   Clear
1:53 PM 60.1 °F - 45.0 °F 57% 30.06 in 9.0 mi West 15.0 mph 23.0 mph N/A   Clear
2:53 PM 61.0 °F - 45.0 °F 56% 30.06 in 9.0 mi West 16.1 mph 21.9 mph N/A   Clear
3:53 PM 60.1 °F - 45.0 °F 57% 30.07 in 9.0 mi West 17.3 mph 24.2 mph N/A   Clear
4:53 PM 59.0 °F - 45.0 °F 60% 30.06 in 8.0 mi WSW 17.3 mph 24.2 mph N/A   Clear
5:53 PM 57.9 °F - 44.1 °F 60% 30.06 in 8.0 mi WSW 15.0 mph - N/A   Clear
6:53 PM 57.0 °F - 44.1 °F 62% 30.05 in 8.0 mi WSW 13.8 mph 20.7 mph N/A   Clear
7:53 PM 54.0 °F - 43.0 °F 66% 30.05 in 8.0 mi SW 13.8 mph - N/A   Clear
8:53 PM 53.1 °F - 42.1 °F 66% 30.05 in 10.0 mi SW 13.8 mph - N/A   Clear
9:53 PM 52.0 °F - 42.1 °F 69% 30.06 in 10.0 mi SW 15.0 mph 20.7 mph N/A   Clear
10:53 PM 52.0 °F - 42.1 °F 69% 30.07 in 10.0 mi SW 15.0 mph 21.9 mph N/A   Clear
11:53 PM 51.1 °F - 42.1 °F 71% 30.07 in 10.0 mi SW 10.4 mph - N/A   Clear